| time (UTC) | temp C | wind direction | speed KPH | gust KPH | rain 1hr cm | rain 24hr cm | rain mn cm | humidity % | barometer mb |
| 20260505035706 | 17 | 177 | 0.0 | 0.0 | 0.00 | 0.00 | 0.00 | 78 | 1009.5 |
| 20260505035202 | 17 | 177 | 0.0 | 0.0 | 0.00 | 0.00 | 0.00 | 78 | 1009.6 |
| 20260505034658 | 17 | 177 | 0.0 | 0.0 | 0.00 | 0.00 | 0.00 | 78 | 1009.7 |
| 20260505034151 | 17 | 177 | 0.0 | 0.0 | 0.00 | 0.00 | 0.00 | 77 | 1009.7 |
| 20260505033646 | 17 | 177 | 0.0 | 0.0 | 0.00 | 0.00 | 0.00 | 77 | 1009.7 |
| 20260505033145 | 17 | 177 | 0.0 | 0.0 | 0.00 | 0.00 | 0.00 | 76 | 1009.7 |
| 20260505032643 | 17 | 177 | 0.0 | 0.0 | 0.00 | 0.00 | 0.00 | 77 | 1009.6 |
| 20260505032139 | 17 | 177 | 0.0 | 0.0 | 0.00 | 0.00 | 0.00 | 75 | 1009.5 |
| 20260505031636 | 17 | 177 | 0.0 | 0.0 | 0.00 | 0.00 | 0.00 | 75 | 1009.6 |
| 20260505031132 | 17 | 177 | 0.0 | 0.0 | 0.00 | 0.00 | 0.00 | 75 | 1009.6 |
| 20260505030629 | 17 | 177 | 0.0 | 0.0 | 0.00 | 0.00 | 0.00 | 76 | 1009.7 |
| 20260505030125 | 17 | 177 | 0.0 | 0.0 | 0.00 | 0.00 | 0.00 | 75 | 1009.3 |
| 20260505025621 | 18 | 177 | 0.0 | 0.0 | 0.00 | 0.00 | 0.00 | 75 | 1009.3 |
| 20260505025120 | 18 | 177 | 0.0 | 0.0 | 0.00 | 0.00 | 0.00 | 74 | 1009.4 |
| 20260505024617 | 18 | 177 | 0.0 | 0.0 | 0.00 | 0.00 | 0.00 | 74 | 1009.3 |
| 20260505024114 | 18 | 177 | 0.0 | 0.0 | 0.00 | 0.00 | 0.00 | 73 | 1009.2 |
| 20260505023611 | 18 | 176 | 0.0 | 0.0 | 0.00 | 0.00 | 0.00 | 73 | 1009.3 |
| 20260505023109 | 18 | 177 | 0.0 | 0.0 | 0.00 | 0.00 | 0.00 | 72 | 1009.1 |
| 20260505022606 | 18 | 177 | 0.0 | 0.0 | 0.00 | 0.00 | 0.00 | 71 | 1009.2 |
| 20260505022103 | 19 | 176 | 0.0 | 0.0 | 0.00 | 0.00 | 0.00 | 70 | 1009.1 |
| 20260505021600 | 20 | 177 | 0.0 | 0.0 | 0.00 | 0.00 | 0.00 | 69 | 1009.1 |
| 20260505021057 | 20 | 177 | 0.0 | 0.0 | 0.00 | 0.00 | 0.00 | 69 | 1008.8 |
| 20260505020556 | 20 | 187 | 0.0 | 0.0 | 0.00 | 0.00 | 0.00 | 68 | 1008.9 |
| 20260505020054 | 20 | 178 | 0.0 | 0.0 | 0.00 | 0.00 | 0.00 | 69 | 1008.8 |
| 20260505015551 | 20 | 178 | 0.0 | 0.0 | 0.00 | 0.00 | 0.00 | 68 | 1008.8 |
| 20260505015047 | 20 | 178 | 0.0 | 0.0 | 0.00 | 0.00 | 0.00 | 67 | 1008.8 |
| 20260505014544 | 20 | 178 | 0.0 | 0.0 | 0.00 | 0.00 | 0.00 | 67 | 1008.5 |
| 20260505014041 | 20 | 178 | 0.0 | 0.0 | 0.00 | 0.00 | 0.00 | 66 | 1008.6 |
| 20260505013538 | 20 | 178 | 0.0 | 0.0 | 0.00 | 0.00 | 0.00 | 65 | 1008.5 |
| 20260505013036 | 21 | 178 | 0.0 | 0.0 | 0.00 | 0.00 | 0.00 | 64 | 1008.5 |
| 20260505012534 | 21 | 178 | 0.0 | 0.0 | 0.00 | 0.00 | 0.00 | 63 | 1008.4 |
| 20260505012030 | 21 | 178 | 0.0 | 0.0 | 0.00 | 0.00 | 0.00 | 61 | 1008.2 |
| 20260505011526 | 22 | 178 | 0.0 | 0.0 | 0.00 | 0.00 | 0.00 | 59 | 1008.5 |
| 20260505011023 | 21 | 182 | 1.6 | 1.6 | 0.00 | 0.00 | 0.00 | 59 | 1008.1 |
| 20260505010518 | 22 | 189 | 0.0 | 1.6 | 0.00 | 0.00 | 0.00 | 60 | 1008.3 |
| 20260505010016 | 22 | 206 | 1.6 | 3.2 | 0.00 | 0.00 | 0.00 | 60 | 1008.2 |
| 20260505005512 | 22 | 177 | 0.0 | 0.0 | 0.00 | 0.00 | 0.00 | 59 | 1008.2 |
| 20260505005010 | 22 | 180 | 0.0 | 0.0 | 0.00 | 0.00 | 0.00 | 58 | 1008.0 |
| 20260505004506 | 22 | 181 | 0.0 | 3.2 | 0.00 | 0.00 | 0.00 | 57 | 1008.3 |
| 20260505004003 | 22 | 196 | 1.6 | 1.6 | 0.00 | 0.00 | 0.00 | 57 | 1008.0 |
| 20260505003500 | 22 | 186 | 0.0 | 3.2 | 0.00 | 0.00 | 0.00 | 56 | 1008.1 |
| 20260505002956 | 22 | 199 | 1.6 | 1.6 | 0.00 | 0.00 | 0.00 | 56 | 1008.2 |
| 20260505002452 | 23 | 209 | 0.0 | 1.6 | 0.00 | 0.00 | 0.00 | 56 | 1008.3 |
| 20260505001951 | 23 | 190 | 1.6 | 3.2 | 0.00 | 0.00 | 0.00 | 55 | 1008.3 |
| 20260505001448 | 23 | 188 | 0.0 | 3.2 | 0.00 | 0.00 | 0.00 | 55 | 1008.2 |
| 20260505000945 | 23 | 188 | 0.0 | 3.2 | 0.00 | 0.00 | 0.00 | 55 | 1008.3 |
| 20260505000443 | 23 | 186 | 3.2 | 3.2 | 0.00 | 0.00 | 0.00 | 54 | 1008.3 |
| 20260504235940 | 23 | 216 | 1.6 | 4.8 | 0.00 | 0.00 | 0.00 | 53 | 1008.3 |
| 20260504235437 | 23 | 184 | 0.0 | 3.2 | 0.00 | 0.00 | 0.00 | 53 | 1008.5 |
| 20260504234933 | 24 | 189 | 1.6 | 3.2 | 0.00 | 0.00 | 0.00 | 54 | 1008.4 |
| 20260504234431 | 24 | 188 | 0.0 | 3.2 | 0.00 | 0.00 | 0.00 | 53 | 1008.5 |
| 20260504233927 | 24 | 185 | 0.0 | 3.2 | 0.00 | 0.00 | 0.00 | 52 | 1008.3 |
| 20260504233423 | 24 | 189 | 1.6 | 3.2 | 0.00 | 0.00 | 0.00 | 52 | 1008.4 |
| 20260504232920 | 24 | 163 | 1.6 | 3.2 | 0.00 | 0.00 | 0.00 | 52 | 1008.5 |
| 20260504232417 | 25 | 196 | 0.0 | 3.2 | 0.00 | 0.00 | 0.00 | 52 | 1008.6 |
| 20260504231914 | 25 | 203 | 1.6 | 9.7 | 0.00 | 0.00 | 0.00 | 51 | 1008.7 |
| 20260504231410 | 25 | 179 | 0.0 | 3.2 | 0.00 | 0.00 | 0.00 | 51 | 1008.8 |
| 20260504230907 | 25 | 177 | 1.6 | 1.6 | 0.00 | 0.00 | 0.00 | 51 | 1008.8 |
| 20260504230404 | 25 | 175 | 0.0 | 3.2 | 0.00 | 0.00 | 0.00 | 51 | 1008.9 |
| 20260504225903 | 25 | 194 | 0.0 | 3.2 | 0.00 | 0.00 | 0.00 | 50 | 1009.1 |
| 20260504225359 | 25 | 162 | 1.6 | 3.2 | 0.00 | 0.00 | 0.00 | 50 | 1008.9 |
| 20260504224857 | 25 | 202 | 0.0 | 3.2 | 0.00 | 0.00 | 0.00 | 49 | 1009.0 |
| 20260504224353 | 25 | 184 | 3.2 | 6.4 | 0.00 | 0.00 | 0.00 | 47 | 1008.9 |
| 20260504223850 | 25 | 170 | 3.2 | 9.7 | 0.00 | 0.00 | 0.00 | 48 | 1008.9 |
| 20260504223345 | 26 | 182 | 6.4 | 9.7 | 0.00 | 0.00 | 0.00 | 46 | 1008.9 |
| 20260504222842 | 26 | 178 | 8.0 | 11.3 | 0.00 | 0.00 | 0.00 | 47 | 1008.8 |
| 20260504222339 | 25 | 188 | 0.0 | 6.4 | 0.00 | 0.00 | 0.00 | 48 | 1008.9 |
| 20260504221837 | 25 | 168 | 3.2 | 14.5 | 0.00 | 0.00 | 0.00 | 47 | 1009.1 |
| 20260504221334 | 25 | 205 | 3.2 | 4.8 | 0.00 | 0.00 | 0.00 | 48 | 1009.1 |
| 20260504220831 | 25 | 197 | 1.6 | 4.8 | 0.00 | 0.00 | 0.00 | 48 | 1009.0 |
| 20260504220327 | 26 | 184 | 4.8 | 6.4 | 0.00 | 0.00 | 0.00 | 47 | 1009.0 |
| 20260504215825 | 26 | 169 | 3.2 | 4.8 | 0.00 | 0.00 | 0.00 | 47 | 1009.2 |
| 20260504215321 | 25 | 150 | 6.4 | 9.7 | 0.00 | 0.00 | 0.00 | 48 | 1009.4 |
| 20260504214817 | 25 | 181 | 0.0 | 1.6 | 0.00 | 0.00 | 0.00 | 49 | 1009.3 |
| 20260504214314 | 25 | 196 | 1.6 | 6.4 | 0.00 | 0.00 | 0.00 | 48 | 1009.3 |
| 20260504213811 | 26 | 162 | 3.2 | 6.4 | 0.00 | 0.00 | 0.00 | 48 | 1009.3 |
| 20260504213307 | 26 | 176 | 3.2 | 11.3 | 0.00 | 0.00 | 0.00 | 48 | 1009.2 |
| 20260504212804 | 26 | 164 | 4.8 | 6.4 | 0.00 | 0.00 | 0.00 | 47 | 1009.2 |
| 20260504212300 | 26 | 188 | 1.6 | 3.2 | 0.00 | 0.00 | 0.00 | 48 | 1009.5 |
| 20260504211758 | 26 | 184 | 0.0 | 3.2 | 0.00 | 0.00 | 0.00 | 47 | 1009.6 |
| 20260504211254 | 26 | 201 | 1.6 | 6.4 | 0.00 | 0.00 | 0.00 | 47 | 1009.6 |
| 20260504210752 | 26 | 203 | 3.2 | 4.8 | 0.00 | 0.00 | 0.00 | 47 | 1009.5 |
| 20260504210249 | 26 | 195 | 9.7 | 14.5 | 0.00 | 0.00 | 0.00 | 45 | 1009.6 |
| 20260504205746 | 26 | 184 | 4.8 | 12.9 | 0.00 | 0.00 | 0.00 | 45 | 1009.7 |
| 20260504205243 | 26 | 216 | 3.2 | 4.8 | 0.00 | 0.00 | 0.00 | 47 | 1009.5 |
| 20260504204741 | 26 | 199 | 3.2 | 16.1 | 0.00 | 0.00 | 0.00 | 46 | 1009.6 |
| 20260504204239 | 26 | 181 | 3.2 | 11.3 | 0.00 | 0.00 | 0.00 | 46 | 1009.7 |
| 20260504203738 | 26 | 179 | 4.8 | 11.3 | 0.00 | 0.00 | 0.00 | 46 | 1009.8 |
| 20260504203235 | 26 | 119 | 3.2 | 4.8 | 0.00 | 0.00 | 0.00 | 47 | 1010.2 |
| 20260504202735 | 26 | 209 | 1.6 | 4.8 | 0.00 | 0.00 | 0.00 | 48 | 1010.0 |
| 20260504202233 | 26 | 226 | 4.8 | 16.1 | 0.00 | 0.00 | 0.00 | 47 | 1010.0 |
| 20260504201730 | 26 | 152 | 8.0 | 9.7 | 0.00 | 0.00 | 0.00 | 45 | 1010.3 |
| 20260504201227 | 26 | 191 | 8.0 | 14.5 | 0.00 | 0.00 | 0.00 | 44 | 1010.4 |
| 20260504200725 | 26 | 220 | 1.6 | 3.2 | 0.00 | 0.00 | 0.00 | 50 | 1010.3 |
| 20260504200220 | 26 | 219 | 1.6 | 3.2 | 0.00 | 0.00 | 0.00 | 48 | 1010.6 |
| 20260504195717 | 26 | 197 | 4.8 | 12.9 | 0.00 | 0.00 | 0.00 | 45 | 1010.6 |
| 20260504195213 | 26 | 167 | 0.0 | 3.2 | 0.00 | 0.00 | 0.00 | 47 | 1010.8 |
| 20260504194710 | 26 | 224 | 9.7 | 14.5 | 0.00 | 0.00 | 0.00 | 46 | 1010.9 |
| 20260504194206 | 26 | 176 | 3.2 | 11.3 | 0.00 | 0.00 | 0.00 | 48 | 1011.0 |
| 20260504193703 | 26 | 197 | 3.2 | 11.3 | 0.00 | 0.00 | 0.00 | 45 | 1011.0 |
| 20260504193200 | 26 | 173 | 3.2 | 9.7 | 0.00 | 0.00 | 0.00 | 46 | 1011.0 |
| 20260504192659 | 26 | 223 | 3.2 | 4.8 | 0.00 | 0.00 | 0.00 | 46 | 1011.1 |
| 20260504192156 | 26 | 232 | 3.2 | 9.7 | 0.00 | 0.00 | 0.00 | 46 | 1011.0 |
| 20260504191655 | 26 | 209 | 0.0 | 6.4 | 0.00 | 0.00 | 0.00 | 47 | 1011.2 |
| 20260504191150 | 26 | 183 | 3.2 | 6.4 | 0.00 | 0.00 | 0.00 | 45 | 1011.2 |
| 20260504190646 | 26 | 187 | 9.7 | 14.5 | 0.00 | 0.00 | 0.00 | 44 | 1011.3 |
| 20260504190143 | 26 | 186 | 3.2 | 4.8 | 0.00 | 0.00 | 0.00 | 45 | 1011.2 |
| 20260504185639 | 26 | 190 | 1.6 | 6.4 | 0.00 | 0.00 | 0.00 | 47 | 1011.6 |
| 20260504185136 | 25 | 200 | 6.4 | 16.1 | 0.00 | 0.00 | 0.00 | 46 | 1011.2 |
| 20260504184632 | 26 | 173 | 6.4 | 6.4 | 0.00 | 0.00 | 0.00 | 46 | 1011.4 |
| 20260504184127 | 26 | 180 | 1.6 | 4.8 | 0.00 | 0.00 | 0.00 | 48 | 1011.4 |
| 20260504183625 | 26 | 174 | 8.0 | 16.1 | 0.00 | 0.00 | 0.00 | 45 | 1011.5 |
| 20260504183122 | 26 | 218 | 4.8 | 12.9 | 0.00 | 0.00 | 0.00 | 45 | 1011.5 |
| 20260504182620 | 26 | 180 | 1.6 | 6.4 | 0.00 | 0.00 | 0.00 | 47 | 1011.7 |
| 20260504182117 | 26 | 207 | 4.8 | 11.3 | 0.00 | 0.00 | 0.00 | 44 | 1011.6 |
| 20260504181614 | 26 | 185 | 3.2 | 6.4 | 0.00 | 0.00 | 0.00 | 44 | 1011.6 |
| 20260504181112 | 26 | 161 | 1.6 | 6.4 | 0.00 | 0.00 | 0.00 | 46 | 1011.8 |
| 20260504180611 | 26 | 153 | 4.8 | 9.7 | 0.00 | 0.00 | 0.00 | 45 | 1011.7 |
| 20260504180109 | 25 | 243 | 3.2 | 4.8 | 0.00 | 0.00 | 0.00 | 51 | 1011.8 |
| 20260504175606 | 26 | 180 | 3.2 | 6.4 | 0.00 | 0.00 | 0.00 | 46 | 1011.9 |
| 20260504175103 | 25 | 155 | 3.2 | 6.4 | 0.00 | 0.00 | 0.00 | 46 | 1012.0 |
| 20260504174601 | 26 | 186 | 3.2 | 3.2 | 0.00 | 0.00 | 0.00 | 46 | 1012.0 |
| 20260504174057 | 25 | 166 | 3.2 | 4.8 | 0.00 | 0.00 | 0.00 | 47 | 1012.3 |
| 20260504173554 | 25 | 199 | 1.6 | 11.3 | 0.00 | 0.00 | 0.00 | 46 | 1012.3 |
| 20260504173052 | 25 | 201 | 3.2 | 9.7 | 0.00 | 0.00 | 0.00 | 45 | 1012.6 |
| 20260504172547 | 26 | 183 | 4.8 | 11.3 | 0.00 | 0.00 | 0.00 | 45 | 1012.6 |
| 20260504172044 | 25 | 182 | 0.0 | 3.2 | 0.00 | 0.00 | 0.00 | 47 | 1012.5 |
| 20260504171541 | 25 | 204 | 4.8 | 9.7 | 0.00 | 0.00 | 0.00 | 46 | 1012.6 |
| 20260504171038 | 25 | 197 | 8.0 | 9.7 | 0.00 | 0.00 | 0.00 | 47 | 1012.6 |
| 20260504170534 | 25 | 181 | 6.4 | 16.1 | 0.00 | 0.00 | 0.00 | 48 | 1012.7 |
| 20260504150918 | 23 | 198 | 3.2 | 3.2 | 0.00 | 0.00 | 0.00 | 56 | 1013.6 |
| 20260504150415 | 21 | 171 | 3.2 | 4.8 | 0.00 | 0.00 | 0.00 | 61 | 1013.4 |
| 20260504140841 | 18 | 167 | 1.6 | 1.6 | 0.00 | 0.00 | 0.00 | 71 | 1014.0 |
| 20260504140337 | 18 | 167 | 1.6 | 1.6 | 0.00 | 0.00 | 0.00 | 71 | 1014.0 |
| 20260504130800 | 16 | 202 | 3.2 | 4.8 | 0.00 | 0.00 | 0.00 | 78 | 1013.7 |
| 20260504130256 | 16 | 200 | 3.2 | 3.2 | 0.00 | 0.00 | 0.00 | 80 | 1013.6 |
| 20260504120220 | 15 | 182 | 1.6 | 3.2 | 0.00 | 0.00 | 0.00 | 81 | 1013.4 |
| 20260504110647 | 13 | 171 | 1.6 | 3.2 | 0.00 | 0.00 | 0.00 | 85 | 1013.0 |
| 20260504110143 | 14 | 176 | 0.0 | 0.0 | 0.00 | 0.00 | 0.00 | 86 | 1013.1 |
| 20260504100609 | 13 | 182 | 0.0 | 0.0 | 0.00 | 0.00 | 0.00 | 86 | 1013.1 |
| 20260504100108 | 13 | 183 | 0.0 | 0.0 | 0.00 | 0.00 | 0.00 | 87 | 1013.2 |
| 20260504082003 | 15 | 179 | 0.0 | 0.0 | 0.00 | 0.00 | 0.00 | 83 | 1013.5 |
| 20260504081500 | 15 | 179 | 0.0 | 0.0 | 0.00 | 0.00 | 0.00 | 83 | 1013.6 |
| 20260504080955 | 15 | 179 | 0.0 | 0.0 | 0.00 | 0.00 | 0.00 | 81 | 1013.5 |
| 20260504080452 | 15 | 179 | 0.0 | 0.0 | 0.00 | 0.00 | 0.00 | 80 | 1013.7 |
| 20260504050253 | 17 | 183 | 0.0 | 1.6 | 0.00 | 0.00 | 0.00 | 71 | 1014.5 |
| 20260504045750 | 17 | 184 | 0.0 | 1.6 | 0.00 | 0.00 | 0.00 | 71 | 1014.5 |
| 20260504045244 | 17 | 192 | 0.0 | 3.2 | 0.00 | 0.00 | 0.00 | 70 | 1014.6 |
| 20260504044742 | 18 | 182 | 1.6 | 1.6 | 0.00 | 0.00 | 0.00 | 70 | 1014.5 |
| 20260504044240 | 18 | 176 | 1.6 | 1.6 | 0.00 | 0.00 | 0.00 | 70 | 1014.5 |
| 20260504043736 | 17 | 187 | 1.6 | 3.2 | 0.00 | 0.00 | 0.00 | 70 | 1014.8 |
| 20260504043233 | 17 | 182 | 0.0 | 0.0 | 0.00 | 0.00 | 0.00 | 71 | 1014.7 |
| 20260504042731 | 17 | 180 | 0.0 | 0.0 | 0.00 | 0.00 | 0.00 | 70 | 1014.6 |
| 20260504042227 | 18 | 189 | 0.0 | 1.6 | 0.00 | 0.00 | 0.00 | 70 | 1014.7 |
| 20260504041724 | 18 | 182 | 0.0 | 1.6 | 0.00 | 0.00 | 0.00 | 70 | 1014.8 |
| 20260504041220 | 18 | 185 | 1.6 | 3.2 | 0.00 | 0.00 | 0.00 | 69 | 1014.9 |
| 20260504040717 | 18 | 173 | 0.0 | 3.2 | 0.00 | 0.00 | 0.00 | 69 | 1014.8 |
| 20260504040214 | 18 | 190 | 0.0 | 0.0 | 0.00 | 0.00 | 0.00 | 69 | 1014.7 |